Home   Weather   Marrakech   Past weeks

Flag for Morocco Past Weather in Marrakech, Morocco — Yesterday and Last 2 Weeks

Now
48 °F

Fog.


Feels Like: 47 °F
Forecast: 48 / 72 °F
Wind: 3 mph from East

Location: Marrakech Airport

Current Time: Feb 28, 2017 at 8:08:55 am

Latest Report: Feb 28, 2017 at 7:30 am


Visibility: 2 mi

Pressure: 30.09 "Hg

Humidity: 87%

Dew Point: 45 °F

Location of MarrakechLocation

Past Weather in Marrakech — Graph

°F

Marrakech Temperature Yesterday

Maximum temperature yesterday: 70 °F (at 4:30 pm)
Minimum temperature yesterday: 48 °F (at 5:00 am)
Average temperature yesterday: 57 °F

High & Low Weather Summary for the Past Weeks

 TemperatureHumidityPressure
High77 °F (Feb 16, 2:30 pm)100% (Feb 26, 7:30 am)30.24 "Hg (Feb 26, 7:30 am)
Low43 °F (Feb 21, 2:30 am)9% (Feb 17, 4:30 pm)29.83 "Hg (Feb 20, 2:00 pm)
Average57 °F63%30.06 "Hg
* Reported Feb 13 7:00 am — Feb 28 7:00 am, Marrakech, Weather by CustomWeather, © 2017

Note: Actual official high and low records may vary slightly from our data, if they occured in-between our weather recording intervals... More about our weather records

Advertising

Marrakech Weather History for the Previous 24 Hours

Scroll right to see more
 ConditionsComfort  
Time TempWeatherWind HumidityBarometerVisibility
7:00 am
Tue, Feb 28
48 °FFog.No wind87%30.09 "Hg2 mi
6:30 am48 °FClear.2 mph87%30.07 "Hg4 mi
6:00 am48 °FClear.1 mph87%30.07 "Hg5 mi
5:30 am50 °FClear.No wind88%30.07 "Hg5 mi
5:00 am52 °FPassing clouds.3 mph82%30.07 "HgN/A
4:30 am52 °FClear.2 mph82%30.07 "Hg10 mi
4:00 am52 °FClear.2 mph82%30.07 "Hg10 mi
3:30 am52 °FClear.2 mph82%30.07 "Hg10 mi
3:00 am54 °FClear.3 mph82%30.07 "Hg10 mi
2:30 am52 °FClear.5 mph82%30.07 "Hg10 mi
2:00 am54 °FClear.6 mph82%30.07 "Hg10 mi
1:30 am54 °FClear.5 mph82%30.09 "Hg10 mi
1:00 am55 °FClear.5 mph77%30.09 "Hg10 mi
12:30 am55 °FClear.5 mph77%30.09 "Hg10 mi
12:00 am55 °FClear.5 mph77%30.09 "Hg10 mi
11:30 pm
Mon, Feb 27
55 °FClear.5 mph77%30.09 "Hg10 mi
11:00 pm57 °FClear.7 mph72%30.09 "Hg10 mi
10:30 pm57 °FClear.7 mph72%30.12 "Hg10 mi
10:00 pm57 °FClear.7 mph72%30.09 "Hg10 mi
9:30 pm59 °FClear.7 mph68%30.12 "Hg10 mi
9:00 pm61 °FClear.5 mph63%30.12 "Hg10 mi
8:30 pm61 °FClear.6 mph63%30.12 "Hg10 mi
8:00 pm63 °FClear.3 mph64%30.09 "Hg10 mi
7:30 pm63 °FClear.2 mph59%30.09 "Hg10 mi
7:00 pm66 °FClear.3 mph46%30.09 "Hg10 mi
6:30 pm68 °FClear.3 mph43%30.09 "Hg10 mi
6:00 pm68 °FClear.3 mph40%30.09 "Hg10 mi
5:30 pm70 °FClear.3 mph40%30.09 "Hg10 mi
5:00 pm70 °FSunny.5 mph40%30.09 "Hg10 mi
4:30 pm70 °FPassing clouds.5 mph38%30.09 "HgN/A
4:00 pm68 °FPassing clouds.6 mph46%30.09 "HgN/A
3:30 pm68 °FClear.6 mph49%30.09 "Hg5 mi
3:00 pm68 °FClear.6 mph53%30.09 "Hg5 mi
2:30 pm66 °FClear.5 mph56%30.09 "Hg5 mi
2:00 pm63 °FClear.3 mph59%30.12 "Hg5 mi
1:30 pm61 °FClear.5 mph63%30.12 "Hg5 mi
1:00 pm61 °FClear.2 mph68%30.12 "Hg5 mi
12:30 pm59 °FScattered clouds.7 mph72%30.15 "Hg4 mi
12:07 pm57 °FScattered clouds.8 mph77%30.15 "Hg3 mi
12:00 pm57 °FFog.6 mph77%30.15 "Hg2 mi
11:30 am55 °FFog.2 mph88%30.15 "Hg1 mi
11:18 am55 °FFog.2 mph88%30.15 "Hg1 mi
11:00 am54 °FFog.2 mph94%30.15 "Hg1 mi
10:30 am52 °FFog.No wind94%30.15 "Hg1 mi
10:00 am52 °FFog.2 mph88%30.15 "Hg1 mi
9:37 am50 °FFog.No wind94%30.15 "Hg1 mi
9:03 am50 °FFog.3 mph94%30.15 "Hg0 mi
8:30 am50 °FFog.3 mph94%30.12 "Hg0 mi
8:00 am50 °FFog.No wind94%30.12 "Hg0 mi
Weather by CustomWeather, © 2017

See weather overviewHow to use our weather pages